Regional Weather Roundup
Issued by NWS

Home | Current Version | Previous Version | Text Only | Print | Product List | Glossary On
Versions: 1 2 3 4 5 6 7 8 9 10 11 12 13 14 15 16 17 18 19 20 21 22 23 24 25 26 27 28 29 30 31 32 33 34 35 36 37 38 39 40 41 42 43 44 45 46 47 48 49 50
000
ASUS43 KMPX 111301
RWRMN
WEATHER ROUNDUP FOR MINNESOTA
NATIONAL WEATHER SERVICE TWIN CITIES/CHANHASSEN MN
700 AM CST THU FEB 11 2016


NOTE: "FAIR" INDICATES FEW OR NO CLOUDS BELOW 12,000 FEET WITH NO
SIGNIFICANT WEATHER AND/OR OBSTRUCTIONS TO VISIBILITY. N/A MEANS
CURRENT SKY AND/OR WEATHER CONDITIONS ARE NOT AVAILABLE.

MNZ060>063-068>070-111400-
   Twin Cities Metro

CITY           SKY/WX    TMP DP  RH WIND       PRES   REMARKS
TWIN CITIES    PTCLDY     4  -6  63 CALM      30.33R
ST PAUL        PTCLDY     3  -5  69 CALM      30.35R
CRYSTAL        PTCLDY    -1  -6  79 CALM      30.32R
BLAINE         CLEAR      0  -6  78 CALM      30.31R
LAKEVILLE      CLOUDY    -6  -9  84 CALM      30.32R
EDEN PRAIRIE   PTCLDY     0  -7  72 CALM      30.31R
SOUTH ST PAUL  PTCLDY     0  -6  76 CALM      30.33R
LAKE ELMO      FAIR      -6 -11  77 CALM      30.33R
$$
MNZ001>005-007-008-013>017-022>024-027-028-111400-
   Northwest Minnesota

CITY           SKY/WX    TMP DP  RH WIND       PRES   REMARKS
BEMIDJI        PTCLDY   -18 -23  78 CALM      30.24S
HALLOCK        CLOUDY     1  -2  85 S6        30.27S WCI -10
ROSEAU         CLOUDY    -9 -15  77 SW3       30.25S
WARROAD        CLOUDY    -9 -15  77 SW5       30.24S WCI -21
THIEF RVR FALL CLOUDY    -4 -15  59 CALM      30.26S
CROOKSTON      CLOUDY     1  -2  85 SE3       30.28F
FOSSTON        CLOUDY   -17 -24  70 CALM      30.25S
DETROIT LAKES  CLOUDY    -4  -8  84 CALM      30.24S
MOORHEAD       CLOUDY     3  -2  78 CALM      30.28R
PARK RAPIDS    CLOUDY   -16 -22  74 CALM      30.23S
MAHNOMEN       FAIR      -8 -13  77 SE6       30.25S WCI -21
$$
MNZ006-009>011-018-025>026-111400-
   North Central Minnesota

CITY           SKY/WX    TMP DP  RH WIND       PRES   REMARKS
BAUDETTE       CLOUDY    -8 -15  71 SW3       30.21F
FLAG ISLAND    CLOUDY    -6 -11  77 CALM      30.22S
INTL FALLS     CLOUDY    -9 -13  83 CALM      30.22F
WASKISH        CLOUDY   -11 -17  77 CALM      30.23F
LONGVILLE      CLOUDY   -18 -26  69 CALM      30.25F
GRAND RAPIDS   MOCLDY   -18 -26  69 CALM      30.22F
CRANE LAKE     CLOUDY   -13 -17  84 CALM      30.25F
ORR            CLOUDY   -15 -20  76 CALM      30.19S
COOK           CLOUDY   -15 -20  76 CALM      30.23S
WALKER         FAIR     -17 -22  78 CALM      30.24F
$$
MNZ012-019>021-037-111400-
   Northeast Minnesota

CITY           SKY/WX    TMP DP  RH WIND       PRES   REMARKS
DULUTH         CLOUDY   -10 -15  78 SW6       30.21R WCI -23
ELY            CLOUDY   -15 -20  76 CALM      30.20F
HIBBING        CLOUDY   -20 -25  77 CALM      30.23S
EVELETH        PTCLDY   -20 -27  69 SW3       30.23S
DULUTH HARBOR  CLOUDY    -6 -11  77 SW5       30.33R WCI -17
TWO HARBORS    CLOUDY    -6 -11  77 SW7       30.21S WCI -20
SILVER BAY     CLOUDY    -9 -15  77 CALM      30.20F
GRAND MARAIS     N/A    -12 -17  78 CALM      30.24F
G MARAIS ARPRT CLOUDY    -9 -17  70 W3        30.10S
$$
MNZ029>031-032-039>041-046>048-054>057-064-111400-
   West Central Minnesota

CITY           SKY/WX    TMP DP  RH WIND       PRES   REMARKS
FERGUS FALLS   CLOUDY     3   1  92 SE3       30.30S
WHEATON        CLOUDY     7   3  85 CALM      30.29F
MORRIS         CLOUDY     1   0  92 CALM      30.26F
ALEXANDRIA     CLOUDY     2  -5  72 S3        30.25S
ELBOW LAKE     CLOUDY     3   0  88 SE5       30.27S WCI  -7
WADENA         CLOUDY    -8 -11  84 CALM      30.25S
GLENWOOD       CLOUDY     0  -6  78 SE3       30.26S
APPLETON       CLOUDY    -2  -8  78 CALM      30.29S
BENSON         CLOUDY     0  -4  85 CALM      30.28S
ORTONVILLE     CLOUDY     3   0  85 CALM      30.26F
MADISON        CLOUDY     0  -6  78 CALM      30.28S
WILLMAR        FAIR       3   0  85 CALM      30.29S
$$
MNZ033>034-036-042>043-049>051-058-059-111400-
   Central Minnesota

CITY           SKY/WX    TMP DP  RH WIND       PRES   REMARKS
ST CLOUD       CLOUDY    -4 -10  75 CALM      30.31R
SAUK CENTRE    FAIR      -5  -9  81 CALM      30.28S
PAYNESVILLE    CLOUDY    -3  -6  86 CALM      30.28F
AITKIN         CLOUDY   -17 -24  70 CALM      30.26R
PINE RIVER     PTCLDY   -17 -20  83 CALM      30.28S
BRAINERD       CLOUDY   -15 -20  78 CALM      30.27S
STAPLES        CLOUDY    -9 -15  77 CALM      30.26S
LONG PRAIRIE   FAIR      -8 -13  77 CALM      30.27S
LITTLE FALLS   CLOUDY    -9 -15  77 CALM      30.30R
LITCHFIELD     CLOUDY     0  -2  92 CALM      30.29F
BUFFALO        CLOUDY    -2  -7  81 CALM      30.32S
MAPLE LAKE     CLOUDY    -2  -5  87 CALM      30.32S
$$
MNZ037-044-045-052-053-111400-
   East Central Minnesota

CITY           SKY/WX    TMP DP  RH WIND       PRES   REMARKS
PRINCETON      PTCLDY    -6  -9  84 CALM      30.30S
MORA           PTCLDY    -8 -13  77 CALM      30.31R
CAMBRIDGE      PTCLDY    -6 -11  77 CALM      30.30R
RUSH CITY      CLOUDY    -6 -11  81 CALM      30.31R
MOOSE LAKE     CLOUDY   -18 -24  76 CALM      30.27S
HINCKLEY       FAIR      -8 -13  77 CALM      30.29S
CLOQUET        CLOUDY   -11 -18  70 CALM      30.24S
MCGREGOR       CLOUDY   -11 -15  84 S3        30.27S
$$
MNZ071>073-080-081-089-090-097-098-111400-
   Southwest Minnesota

CITY           SKY/WX    TMP DP  RH WIND       PRES   REMARKS
MONTEVIDEO     CLOUDY     3  -2  78 CALM      30.30S
GRANITE FALLS  PTCLDY    -1  -4  86 CALM      30.31S
CANBY          CLOUDY     1  -2  85 CALM      30.28S
MARSHALL       CLOUDY    -2  -6  83 SW5       30.28F WCI -12
REDWOOD FALLS  CLOUDY     0  -5  79 CALM      30.30S
OLIVIA         CLOUDY     5   1  85 CALM      30.29S
PIPESTONE      CLOUDY    12   3  67 S5        30.22S WCI   4
WINDOM         CLOUDY    -8 -11  84 CALM      30.27R
WORTHINGTON    CLOUDY     9   1  72 SE6       30.26S WCI  -1
JACKSON        CLOUDY    -2  -8  78 CALM      30.27R
TRACY          PTCLDY     1  -3  85 CALM      30.26F
SLAYTON        CLOUDY     2   1  93 E3        30.24F
$$
MNZ065>067-074>077-082>085-091>093-111400-
   South Central Minnesota

CITY           SKY/WX    TMP DP  RH WIND       PRES   REMARKS
MANKATO        CLOUDY     0  -6  78 CALM      30.30S
NEW ULM        CLOUDY    -2  -6  84 CALM      30.30S
ST JAMES       CLOUDY    -6  -9  84 SW5       30.31S WCI -17
FAIRMONT       CLOUDY    -2  -8  78 W5        30.28S WCI -12
GLENCOE        CLOUDY     0  -3  87 CALM      30.30F
FARIBAULT        N/A     -8 -11  84 CALM      30.31S
OWATONNA       PTCLDY    -2  -8  78 MISG      30.30R
WASECA         CLOUDY    -2  -8  78 CALM      30.32S
ALBERT LEA       N/A     -4  -8  84 CALM      30.28F
$$
MNZ078>079-086>088-094>096-111400-
   Southeast Minnesota

CITY           SKY/WX    TMP DP  RH WIND       PRES   REMARKS
ROCHESTER      CLOUDY     0  -6  76 NW5       30.28R WCI -10
RED WING       PTCLDY    -6 -11  77 CALM      30.33R
STANTON        CLOUDY    -7 -12  78 S5        30.31S WCI -18
DODGE CENTER   CLOUDY    -6  -9  84 W6        30.27R WCI -18
WINONA         PTCLDY    -2  -8  78 CALM      30.36R
AUSTIN         PTCLDY    -2  -6  84 CALM      30.28F
PRESTON        CLOUDY     1  -5  76 NW5       30.28R WCI  -9
$$
ABBREVIATIONS USED IN REMARKS
   TC - TEMPERATURES IN CELSIUS
  WCI - WIND CHILL INDEX
   HX - HEAT INDEX
  VSB - VISIBILITY
$$



USA.gov is the U.S. government's official web portal to all federal, state and local government web resources and services.